Cloud_Cover
5 18 89 90 76 100 100 100 100 100 85 100 100 100 100 100 96 100 100 98 6 5 5 5 5 12 14 23 24 23 23 15 16 28 39 72 95 98 92 93 98 99 91
99 35 34 96 81 100 100 100 100 100 100 100 73 100 68 61 100 85 100 7 14 41 36 80 96 100 99 61 7 5 7 73 14 17 99 32 57 35 16 83 100 100 63
54 100 100 100 100 100 90 100 100 100 61 86 100 100 100 100 94 100 94 87 30 16 5 5 5 5 3 5 6 7 5 5 5 5 11 27 77 100 100 96 68 39 5
38 75 45 73 73 33 64 64 93 86 79 70 62 51 52 94 94 66 22 5 5 9 5 14 5 5 4 5 5 45 17 5 5 99 67 13 99 96 100 94 98 30 38
81 63 4 5 35 61 46 37 5 1 39 3 58 98 12 38 80 68 6 5 5 5 19 32 73 20 98 16 18 64 54 5 11 32 97 100 100 100 100 100 35 35 31
94 77 0 5 7 11 10 44 5 6 5 43 18 44 5 43 28 4 3 9 8 5 5 6 99 100 12 11 11 5 5 23 66 96 100 100 100 100 100 90 15 61 5
9 0 0 3 4 4 5 5 26 5 8 69 100 7 68 21 59 89 96 75 58 26 5 9 54 11 81 93 100 84 12 92 100 100 100 100 100 100 83 85 100 8 70
0 34 14 0 0 5 5 5 5 6 7 69 97 100 100 70 6 5 61 67 12 5 5 32 51 82 70 99 100 75 77 98 92 91 95 100 100 100 100 92 47 100 40
29 66 83 25 1 3 0 0 4 50 45 100 100 100 91 9 1 4 0 4 31 5 5 5 64 100 100 100 100 100 97 100 100 99 84 100 100 100 100 100 100 59 5
85 63 95 100 50 58 21 1 3 65 100 69 52 8 4 0 0 0 0 4 86 22 4 5 100 100 100 100 100 100 100 100 100 100 100 100 100 100 100 100 27 31 5
46 99 100 44 67 84 39 4 0 1 5 5 4 23 10 20 0 0 0 4 5 5 38 100 100 100 100 100 100 100 100 100 99 73 59 99 100 100 100 100 67 10 5
43 75 71 67 79 85 43 98 43 24 72 27 57 3 0 0 0 0 0 5 4 7 100 100 100 100 100 99 100 100 99 95 97 100 99 100 100 100 81 55 13 5 5
40 26 36 50 30 32 17 6 2 26 12 37 2 5 0 6 4 0 0 6 1 3 54 83 100 94 100 89 100 100 100 100 100 100 100 100 100 82 98 38 5 5 5
15 14 8 1 21 21 2 0 0 25 28 13 0 1 11 22 15 31 9 2 6 0 5 96 77 15 69 100 100 100 100 100 100 100 98 100 100 99 71 5 5 5 5
0 0 0 1 45 32 38 0 0 2 77 1 0 14 24 8 10 19 0 16 5 12 16 13 16 13 99 100 92 96 100 84 54 77 65 76 65 72 25 10 5 5 5
0 0 0 7 24 20 12 5 17 43 23 0 0 0 1 21 9 0 0 0 0 3 6 5 5 51 98 99 97 14 98 18 5 5 43 60 100 99 5 5 5 5 5
0 0 0 10 30 5 16 6 24 2 19 0 0 0 0 6 0 2 1 10 5 0 0 1 4 6 5 5 19 5 10 20 5 5 6 43 30 5 5 5 5 5 25
0 0 0 4 0 5 1 14 29 24 33 19 0 0 0 0 0 9 22 15 0 0 31 3 8 0 0 0 0 0 0 0 0 0 0 0 1 1 5 5 7 32 17
0 0 0 2 0 4 5 5 12 2 46 5 0 12 3 0 0 8 40 2 0 3 23 14 0 0 0 0 0 0 0 0 3 2 0 4 5 5 5 6 5 75 97
0 0 0 0 0 16 1 5 28 0 46 15 31 39 5 0 0 0 8 0 0 15 1 0 0 0 0 0 0 0 0 0 16 51 12 1 3 2 0 5 30 99 100
0 0 0 1 2 0 0 18 34 53 55 43 32 1 0 1 0 0 15 0 0 4 3 0 0 0 0 0 0 0 0 0 0 43 99 39 2 1 1 5 59 100 100
0 0 0 6 0 1 3 70 87 13 44 27 4 4 1 0 0 0 2 10 13 18 0 0 0 0 0 0 0 0 0 0 0 5 9 66 35 27 100 100 68 100 100
0 0 4 1 1 2 28 17 0 5 13 20 10 5 1 0 0 0 0 9 0 28 33 0 0 0 0 0 0 8 4 6 0 5 34 100 84 86 100 83 45 51 1
2 0 5 0 5 1 5 14 4 0 35 94 36 13 21 13 4 5 5 8 4 1 0 6 0 0 1 0 0 0 0 0 0 4 5 97 59 10 5 5 5 3 5
4 4 17 27 2 15 6 31 2 31 19 1 40 5 1 6 5 14 5 6 25 5 5 5 2 1 0 0 0 0 0 0 0 0 2 5 5 5 5 0 0 0 0
11 6 16 5 98 5 24 25 24 9 53 22 19 12 10 70 99 100 5 5 16 86 98 38 37 42 7 0 0 0 0 18 20 1 0 1 6 8 2 2 2 0 0